Wind_Speed
21 24 28 31 33 34 36 39 41 44 45 47 48 49 51 52 53 53 52 53 55 55 55 54 53 52 51 52 51 51 51 50 48 46 45 46 47 46 45 44 44 44 44
18 20 24 28 31 33 35 38 41 44 46 45 45 46 47 50 51 52 52 53 54 55 56 55 54 52 51 51 50 50 50 50 48 47 46 45 45 46 47 46 45 44 43
15 18 21 24 28 31 32 34 38 41 43 44 44 45 46 48 51 53 53 53 53 53 54 55 53 53 53 52 51 50 49 49 48 48 47 46 46 45 45 46 47 46 45
13 16 18 20 25 28 30 32 35 37 39 41 44 44 45 48 50 53 54 54 54 54 53 53 53 53 52 51 51 50 49 49 48 49 48 47 46 45 46 46 46 46 46
12 13 15 17 20 23 27 30 32 35 37 39 43 44 45 47 48 50 53 53 53 53 54 53 52 52 51 51 51 51 51 51 50 50 49 48 47 46 45 45 46 46 46
13 14 15 17 19 21 25 29 31 34 36 38 41 42 43 44 45 46 47 49 50 51 51 51 51 51 51 52 52 52 52 52 51 51 50 48 47 47 47 47 45 45 46
15 16 18 19 20 22 24 27 30 33 35 38 40 41 42 43 45 45 47 47 48 49 50 51 52 53 53 53 53 52 53 53 52 52 51 50 48 47 48 48 47 46 46
17 18 19 20 21 22 24 27 30 32 34 36 37 39 41 42 44 45 47 48 48 48 49 50 51 52 53 52 52 52 53 52 52 52 51 50 49 49 48 47 46 46 45
20 20 21 22 23 24 25 27 29 32 33 34 36 37 39 41 43 44 46 46 46 46 46 47 48 49 50 50 51 51 50 50 51 51 51 51 50 49 48 47 45 44 43
22 23 23 24 24 25 26 27 28 30 31 33 35 36 38 40 42 43 44 44 44 45 46 47 48 48 49 49 50 50 49 49 50 50 50 50 50 49 49 47 44 43 43
24 25 26 25 25 26 27 27 28 30 31 33 34 36 37 38 39 40 42 43 43 44 44 46 47 48 49 49 48 49 49 49 49 48 48 49 48 47 46 45 44 43 43
27 27 26 26 27 27 28 28 28 30 31 32 33 34 35 37 39 40 41 41 41 43 43 44 44 46 47 47 47 47 48 49 48 48 48 47 47 46 45 43 42 42 41
28 29 28 28 28 29 29 30 31 31 32 32 34 35 36 37 38 39 40 41 41 41 41 41 41 42 43 44 45 45 45 46 47 47 46 46 45 44 44 44 43 41 40
31 30 29 30 30 30 31 32 33 33 33 33 34 35 35 37 37 38 38 39 39 39 40 41 42 42 43 43 43 43 43 44 44 44 44 44 44 43 43 42 41 39 38
32 32 33 33 33 33 33 33 33 33 33 33 34 34 35 36 36 37 38 38 38 38 38 38 39 41 41 41 40 39 40 40 41 42 43 42 42 42 41 40 39 37 37
34 34 35 35 36 35 35 35 34 34 34 34 35 35 35 35 35 36 36 37 37 38 38 37 37 38 39 40 40 40 40 40 40 41 41 41 41 41 40 40 39 38 36
36 37 37 37 37 37 37 36 36 36 36 36 36 36 36 36 35 35 36 37 37 37 38 38 38 37 37 38 38 39 39 40 39 39 39 39 39 40 39 38 38 38 36
39 39 39 39 39 39 38 37 37 37 36 36 36 36 36 36 35 35 35 36 36 37 37 38 38 37 37 37 37 38 39 39 38 38 39 39 39 38 37 37 36 36 36
40 40 41 41 40 39 39 39 39 38 38 37 36 36 36 36 35 35 35 36 37 37 37 37 37 37 37 37 37 38 38 38 37 38 38 38 38 37 37 36 36 36 36
41 42 42 41 40 40 39 39 39 38 38 37 36 36 36 35 35 34 35 36 36 37 37 37 37 37 37 37 37 37 37 37 37 38 37 37 37 37 37 36 36 36 36
42 41 41 40 40 40 40 40 39 38 37 37 36 36 36 35 35 34 35 36 37 37 37 37 37 37 36 37 37 37 37 37 38 37 37 36 37 37 37 36 36 36 35
42 42 41 40 40 40 40 41 40 39 38 37 36 35 35 34 33 34 34 34 35 36 36 37 36 36 36 36 37 37 36 36 37 37 36 36 36 36 36 36 35 35 35
42 41 41 40 41 40 40 40 40 39 38 37 35 35 34 34 33 32 33 33 33 34 35 35 35 35 36 36 36 36 36 36 36 36 36 36 36 36 36 35 35 35 35
41 41 41 41 41 40 40 39 39 38 37 36 35 34 34 33 32 32 31 31 32 32 33 33 33 34 34 35 35 35 35 35 35 35 35 35 35 36 36 35 35 35 35
41 41 41 41 40 40 39 38 37 36 35 34 33 32 32 32 31 31 30 30 29 30 30 30 30 31 31 32 33 33 33 33 34 34 35 35 35 35 35 34 34 34 34
41 41 40 40 39 38 37 36 36 35 34 32 31 30 30 29 30 30 29 29 28 28 28 28 29 29 30 30 31 31 32 32 33 33 34 34 34 34 34 33 33 33 33
Wind_Direction
250 249 248 248 244 245 245 242 241 241 242 246 246 247 247 247 247 247 248 248 248 249 252 254 256 256 257 258 261 263 264 265 265 265 265 268 269 270 271 272 273 274 277
254 255 254 250 248 248 248 245 242 242 243 246 246 246 248 249 249 249 250 251 251 251 252 253 255 255 257 258 260 262 264 265 265 265 266 268 269 271 271 271 272 275 276
267 264 262 258 256 253 251 247 246 244 244 245 245 247 250 252 250 249 250 251 251 252 253 253 254 255 256 257 260 263 264 264 265 266 267 268 270 271 271 271 271 273 275
280 275 271 268 262 257 255 252 249 247 246 245 246 249 251 252 252 251 252 254 253 253 253 253 253 255 257 257 259 261 262 263 264 266 267 268 269 271 271 272 272 273 274
291 286 278 279 272 264 258 255 254 252 250 248 247 248 251 253 253 254 254 254 255 255 254 254 254 255 256 256 258 260 261 262 263 265 266 268 269 271 271 273 273 272 271
295 294 290 287 281 272 264 260 259 255 251 249 249 249 251 253 254 255 255 255 255 255 255 254 254 254 256 257 258 259 259 261 262 264 265 267 269 270 270 272 272 270 269
300 297 292 289 285 278 270 265 261 258 255 252 251 250 251 253 253 254 255 256 256 256 255 255 255 255 256 256 257 257 258 259 261 263 265 267 267 268 270 270 269 269 270
309 303 296 292 287 282 276 272 267 262 260 256 255 254 254 253 252 253 254 255 255 256 256 257 258 257 255 256 258 258 260 261 262 263 264 265 265 265 267 267 268 267 268
311 308 302 298 293 288 284 278 272 268 264 260 257 257 257 257 256 255 255 256 256 257 258 258 258 256 255 256 258 259 260 261 261 261 262 263 263 263 264 265 266 267 268
313 309 304 299 297 295 291 285 278 273 268 265 261 259 259 260 259 257 256 256 255 256 257 258 257 255 256 256 257 258 259 260 260 260 261 261 262 262 263 264 265 267 267
315 311 309 304 301 301 297 292 285 279 275 272 268 264 263 262 261 259 258 257 257 257 258 258 257 256 257 256 257 258 261 260 260 260 259 259 261 263 264 263 264 265 265
318 315 311 307 304 303 302 299 295 290 283 277 272 269 267 265 263 261 259 258 259 260 261 261 260 259 258 257 257 259 260 258 258 259 259 259 261 262 262 262 262 264 264
318 315 311 307 306 304 302 300 298 296 292 284 278 273 269 267 265 264 261 259 260 261 262 262 261 259 258 258 257 258 259 259 258 259 260 260 261 261 261 260 261 263 264
315 313 311 309 308 306 303 301 299 296 295 290 284 280 275 270 267 265 262 261 261 261 262 262 262 260 260 259 257 256 257 258 257 258 260 260 259 259 260 260 260 261 262
313 312 310 309 308 307 305 303 300 298 295 292 288 284 279 275 271 268 265 262 262 262 261 262 261 259 258 256 254 254 255 255 256 257 258 259 260 259 259 259 261 262 262
313 312 310 310 309 307 305 304 301 299 297 295 292 287 282 280 277 273 269 267 264 263 263 263 262 259 257 256 255 255 254 255 257 259 259 258 258 258 258 259 259 259 260
311 310 309 308 308 307 306 305 303 300 299 297 294 289 285 282 280 276 272 268 266 265 265 265 264 261 259 258 257 255 255 256 258 258 256 256 255 255 255 256 256 257 258
310 310 308 307 307 306 305 305 303 300 298 296 294 291 286 282 279 277 273 269 267 266 268 268 266 263 261 260 259 258 258 258 257 255 255 255 254 254 254 254 254 254 256
310 310 310 308 307 305 304 304 302 300 298 296 294 290 288 284 280 277 274 270 268 268 269 269 268 265 263 262 261 259 258 257 255 254 254 253 252 253 253 253 253 254 255
310 310 310 309 308 306 306 305 304 302 299 296 294 291 288 284 280 277 275 271 270 270 269 269 268 266 265 263 261 259 257 255 254 254 252 251 250 250 251 252 253 253 254
309 309 309 308 307 307 307 306 305 304 301 298 295 292 289 285 281 278 277 275 272 271 270 269 267 267 265 263 260 258 256 254 253 253 252 251 249 249 250 251 253 254 255
307 308 308 308 308 307 307 307 305 304 302 300 297 293 290 286 283 279 278 276 274 272 271 270 267 265 263 261 258 256 255 254 252 251 251 250 248 248 250 252 253 254 255
306 306 306 307 307 307 307 307 306 304 303 301 297 293 289 286 283 281 279 277 275 272 270 268 266 264 261 259 258 256 254 253 251 250 250 250 249 249 251 252 253 254 254
306 307 307 307 307 306 306 306 306 305 304 302 299 293 289 285 283 281 280 278 276 273 271 268 266 264 261 259 257 255 252 251 250 250 249 249 248 249 251 252 253 253 254
306 306 306 306 307 307 306 306 306 305 304 303 301 296 290 286 284 282 280 279 277 274 271 268 265 262 260 257 254 252 250 249 249 248 249 249 249 249 250 251 253 254 254
305 306 306 306 306 306 306 306 306 306 305 304 302 299 294 289 285 282 281 279 277 275 272 269 266 262 258 256 253 251 249 249 248 248 248 248 248 249 249 251 251 252 254
Height
5627 5629 5632 5635 5638 5640 5643 5647 5651 5655 5659 5663 5666 5670 5673 5677 5680 5684 5687 5690 5693 5696 5698 5700 5702 5704 5705 5706 5708 5709 5709 5710 5711 5713 5714 5715 5716 5716 5717 5717 5717 5717 5717
5622 5623 5625 5627 5629 5631 5634 5637 5640 5644 5648 5651 5655 5658 5662 5665 5668 5671 5675 5677 5680 5682 5685 5687 5689 5690 5691 5693 5695 5696 5697 5697 5698 5700 5702 5702 5703 5704 5704 5705 5705 5705 5706
5617 5618 5619 5620 5622 5623 5625 5628 5630 5633 5636 5640 5644 5647 5650 5653 5656 5658 5661 5664 5667 5669 5671 5673 5675 5677 5678 5680 5682 5683 5684 5685 5686 5687 5689 5690 5691 5691 5692 5692 5693 5693 5694
5613 5613 5613 5613 5614 5615 5617 5618 5621 5623 5626 5629 5632 5635 5638 5641 5643 5645 5648 5650 5653 5655 5657 5659 5661 5663 5665 5667 5668 5670 5671 5672 5673 5674 5676 5677 5678 5679 5679 5680 5681 5681 5682
5609 5608 5608 5607 5607 5607 5608 5609 5611 5613 5616 5618 5621 5624 5627 5628 5630 5632 5634 5636 5638 5640 5642 5644 5647 5649 5651 5653 5654 5656 5657 5658 5660 5661 5662 5664 5665 5666 5668 5668 5669 5669 5670
5605 5603 5602 5601 5600 5599 5599 5600 5602 5603 5605 5607 5610 5613 5614 5616 5617 5618 5620 5621 5623 5625 5628 5630 5632 5635 5637 5639 5641 5642 5643 5645 5646 5648 5649 5651 5653 5654 5655 5656 5656 5657 5658
5600 5599 5597 5595 5594 5593 5592 5592 5592 5593 5595 5597 5599 5600 5602 5603 5604 5606 5607 5608 5609 5611 5613 5615 5618 5620 5622 5625 5626 5627 5629 5630 5632 5634 5636 5638 5640 5641 5642 5643 5644 5644 5645
5595 5593 5591 5589 5588 5586 5585 5584 5583 5583 5584 5585 5587 5588 5589 5590 5591 5593 5594 5595 5596 5597 5599 5601 5603 5605 5607 5609 5611 5613 5614 5616 5618 5620 5622 5625 5626 5628 5629 5630 5631 5632 5633
5590 5587 5585 5583 5581 5579 5577 5575 5574 5573 5573 5574 5575 5576 5577 5578 5578 5579 5581 5581 5583 5584 5586 5587 5589 5590 5592 5594 5597 5599 5601 5602 5604 5606 5609 5611 5612 5614 5615 5617 5618 5620 5621
5585 5582 5579 5576 5574 5571 5569 5566 5564 5563 5562 5562 5563 5563 5564 5565 5566 5567 5567 5569 5570 5571 5573 5574 5575 5577 5578 5579 5582 5585 5587 5589 5591 5593 5595 5597 5598 5600 5602 5604 5606 5608 5609
5581 5577 5573 5570 5567 5564 5561 5558 5556 5554 5553 5552 5552 5552 5552 5553 5553 5554 5554 5555 5557 5558 5559 5561 5562 5563 5564 5566 5568 5570 5573 5575 5577 5579 5581 5584 5586 5588 5590 5592 5594 5596 5598
5576 5571 5567 5564 5560 5557 5554 5550 5548 5545 5543 5542 5541 5540 5540 5541 5541 5541 5542 5542 5543 5544 5546 5548 5548 5550 5551 5553 5554 5556 5559 5561 5563 5566 5568 5571 5573 5575 5577 5579 5581 5583 5585
5570 5566 5561 5558 5554 5551 5547 5544 5541 5538 5535 5533 5531 5530 5530 5529 5529 5529 5530 5531 5531 5532 5533 5534 5536 5537 5538 5539 5541 5543 5545 5548 5550 5553 5555 5558 5560 5562 5565 5567 5569 5572 5574
5564 5559 5555 5552 5548 5544 5540 5537 5533 5530 5527 5524 5522 5520 5519 5519 5518 5518 5518 5519 5520 5520 5521 5522 5523 5524 5525 5527 5528 5530 5533 5536 5538 5541 5543 5546 5548 5550 5552 5555 5558 5560 5563
5557 5553 5548 5544 5540 5536 5532 5528 5525 5521 5518 5515 5513 5511 5510 5509 5508 5507 5507 5507 5508 5509 5509 5510 5511 5512 5513 5514 5516 5519 5521 5524 5526 5528 5531 5533 5536 5538 5540 5543 5546 5549 5551
5550 5545 5541 5536 5532 5528 5524 5520 5515 5512 5509 5505 5503 5501 5499 5498 5496 5495 5495 5495 5496 5497 5498 5499 5499 5499 5501 5502 5505 5507 5509 5512 5514 5516 5519 5521 5523 5526 5529 5532 5535 5538 5540
5541 5537 5532 5528 5523 5519 5514 5510 5506 5503 5499 5495 5493 5490 5488 5487 5485 5485 5484 5484 5484 5485 5486 5487 5487 5488 5489 5491 5493 5495 5498 5500 5502 5505 5507 5509 5511 5514 5517 5520 5523 5526 5529
5532 5527 5522 5517 5513 5508 5504 5500 5496 5493 5489 5485 5482 5479 5477 5476 5474 5474 5473 5473 5473 5474 5474 5475 5476 5477 5477 5479 5481 5483 5485 5488 5490 5492 5495 5497 5500 5503 5506 5508 5511 5514 5517
5521 5516 5511 5506 5501 5497 5493 5489 5485 5481 5478 5474 5471 5469 5466 5464 5463 5462 5461 5461 5462 5463 5463 5463 5464 5465 5466 5467 5469 5471 5473 5475 5478 5480 5483 5485 5488 5491 5494 5497 5500 5503 5506
5511 5506 5500 5495 5490 5486 5481 5477 5473 5469 5466 5463 5460 5457 5455 5453 5452 5451 5450 5450 5450 5450 5451 5451 5452 5453 5454 5455 5457 5459 5461 5463 5466 5468 5471 5473 5476 5479 5482 5486 5489 5492 5495
5500 5495 5490 5484 5480 5475 5471 5466 5462 5458 5454 5451 5448 5445 5443 5441 5440 5439 5438 5438 5438 5438 5438 5439 5439 5440 5441 5443 5444 5446 5449 5451 5454 5456 5459 5462 5465 5468 5471 5474 5477 5480 5483
5489 5484 5479 5474 5469 5464 5460 5455 5451 5447 5443 5439 5436 5434 5431 5429 5428 5427 5427 5426 5426 5425 5425 5426 5427 5427 5429 5430 5432 5434 5437 5439 5441 5444 5447 5450 5453 5456 5459 5462 5466 5469 5471
5478 5473 5468 5463 5458 5454 5449 5444 5440 5436 5432 5428 5425 5422 5420 5419 5417 5416 5416 5415 5414 5414 5413 5414 5414 5415 5417 5418 5420 5422 5425 5427 5429 5432 5435 5438 5441 5445 5448 5451 5454 5457 5460
5467 5462 5457 5452 5447 5443 5438 5433 5429 5425 5421 5417 5414 5411 5409 5408 5406 5405 5404 5404 5403 5402 5402 5402 5402 5403 5404 5406 5408 5410 5412 5415 5418 5421 5424 5427 5430 5433 5437 5440 5443 5446 5449
5456 5451 5446 5441 5437 5432 5427 5423 5418 5414 5410 5407 5404 5401 5399 5397 5396 5395 5394 5393 5392 5392 5391 5391 5392 5392 5393 5395 5397 5399 5401 5404 5407 5410 5413 5416 5419 5423 5426 5429 5432 5435 5438
5445 5440 5435 5430 5426 5421 5417 5413 5408 5404 5401 5397 5394 5391 5389 5387 5386 5385 5384 5383 5382 5382 5381 5381 5381 5382 5383 5385 5387 5389 5391 5394 5397 5399 5402 5405 5408 5412 5415 5418 5421 5424 5427